Time,TemperatureF,DewpointF,PressureIn,WindDirection,WindDirectionDegrees,WindSpeedMPH,WindSpeedGustMPH,Humidity,HourlyPrecipIn,Conditions,Clouds,dailyrainin,SolarRadiationWatts/m^2,SoftwareType,DateUTC
2013-10-08 00:21:00,61.0,11.0,-100.00,North,10,13.0,17.0,14,0.00,,,0.00,0.000000,,2013-10-08 07:21:00,
2013-10-08 00:32:00,61.0,11.0,-100.00,North,10,13.0,17.0,14,0.00,,,0.00,0.000000,,2013-10-08 07:32:00,
2013-10-08 00:42:00,61.0,11.0,-100.00,North,10,13.0,17.0,14,0.00,,,0.00,0.000000,,2013-10-08 07:42:00,
2013-10-08 00:52:00,61.0,11.0,-100.00,North,10,13.0,17.0,14,0.00,,,0.00,0.000000,,2013-10-08 07:52:00,
2013-10-08 01:22:00,59.0,11.0,-100.00,North,10,12.0,19.0,15,0.00,,,0.00,0.000000,,2013-10-08 08:22:00,
2013-10-08 01:32:00,59.0,11.0,-100.00,North,10,12.0,19.0,15,0.00,,,0.00,0.000000,,2013-10-08 08:32:00,
2013-10-08 01:42:00,59.0,11.0,-100.00,North,10,12.0,19.0,15,0.00,,,0.00,0.000000,,2013-10-08 08:42:00,
2013-10-08 01:52:00,59.0,11.0,-100.00,North,10,12.0,19.0,15,0.00,,,0.00,0.000000,,2013-10-08 08:52:00,
2013-10-08 02:22:00,58.0,12.0,-100.00,North,8,12.0,18.0,16,0.00,,,0.00,0.000000,,2013-10-08 09:22:00,
2013-10-08 02:33:00,58.0,12.0,-100.00,North,8,12.0,18.0,16,0.00,,,0.00,0.000000,,2013-10-08 09:33:00,
2013-10-08 02:43:00,58.0,12.0,-100.00,North,8,12.0,18.0,16,0.00,,,0.00,0.000000,,2013-10-08 09:43:00,
2013-10-08 02:53:00,58.0,12.0,-100.00,North,8,12.0,18.0,16,0.00,,,0.00,0.000000,,2013-10-08 09:53:00,
2013-10-08 03:23:00,56.0,12.0,-100.00,NNE,16,15.0,19.0,17,0.00,,,0.00,0.000000,,2013-10-08 10:23:00,
2013-10-08 03:33:00,56.0,12.0,-100.00,NNE,16,15.0,19.0,17,0.00,,,0.00,0.000000,,2013-10-08 10:33:00,
2013-10-08 03:42:00,56.0,12.0,-100.00,NNE,16,15.0,19.0,17,0.00,,,0.00,0.000000,,2013-10-08 10:42:00,
2013-10-08 03:53:00,56.0,12.0,-100.00,NNE,16,15.0,19.0,17,0.00,,,0.00,0.000000,,2013-10-08 10:53:00,
2013-10-08 04:22:00,55.0,12.0,-100.00,North,9,11.0,17.0,18,0.00,,,0.00,0.000000,,2013-10-08 11:22:00,
2013-10-08 04:33:00,55.0,12.0,-100.00,North,9,11.0,17.0,18,0.00,,,0.00,0.000000,,2013-10-08 11:33:00,
2013-10-08 04:42:00,55.0,12.0,-100.00,North,9,11.0,17.0,18,0.00,,,0.00,0.000000,,2013-10-08 11:42:00,
2013-10-08 04:52:00,55.0,12.0,-100.00,North,9,11.0,17.0,18,0.00,,,0.00,0.000000,,2013-10-08 11:52:00,
2013-10-08 05:21:00,55.0,14.0,-100.00,North,11,12.0,18.0,19,0.00,,,0.00,0.000000,,2013-10-08 12:21:00,
2013-10-08 05:31:00,55.0,14.0,-100.00,North,11,12.0,18.0,19,0.00,,,0.00,0.000000,,2013-10-08 12:31:00,
2013-10-08 05:42:00,55.0,14.0,-100.00,North,11,12.0,18.0,19,0.00,,,0.00,0.000000,,2013-10-08 12:42:00,
2013-10-08 05:52:00,55.0,14.0,-100.00,North,11,12.0,18.0,19,0.00,,,0.00,0.000000,,2013-10-08 12:52:00,
2013-10-08 06:22:00,54.0,14.0,-100.00,North,10,16.0,21.0,20,0.00,,,0.00,0.000000,,2013-10-08 13:22:00,
2013-10-08 06:32:00,54.0,14.0,-100.00,North,10,16.0,21.0,20,0.00,,,0.00,0.000000,,2013-10-08 13:32:00,
2013-10-08 06:42:00,54.0,14.0,-100.00,North,10,16.0,21.0,20,0.00,,,0.00,0.000000,,2013-10-08 13:42:00,
2013-10-08 06:52:00,54.0,14.0,-100.00,North,10,16.0,21.0,20,0.00,,,0.00,0.000000,,2013-10-08 13:52:00,
2013-10-08 07:22:00,54.0,14.0,-100.00,NNE,12,10.0,21.0,20,0.00,,,0.00,0.000000,,2013-10-08 14:22:00,
2013-10-08 07:32:00,54.0,14.0,-100.00,NNE,12,10.0,21.0,20,0.00,,,0.00,0.000000,,2013-10-08 14:32:00,
2013-10-08 07:42:00,54.0,14.0,-100.00,NNE,12,10.0,21.0,20,0.00,,,0.00,0.000000,,2013-10-08 14:42:00,
2013-10-08 07:52:00,54.0,14.0,-100.00,NNE,12,10.0,21.0,20,0.00,,,0.00,0.000000,,2013-10-08 14:52:00,
2013-10-08 08:22:00,52.0,13.0,-100.00,North,7,12.0,18.0,21,0.00,,,0.00,16.000000,,2013-10-08 15:22:00,
2013-10-08 08:33:00,52.0,13.0,-100.00,North,7,12.0,18.0,21,0.00,,,0.00,16.000000,,2013-10-08 15:33:00,
2013-10-08 08:44:00,52.0,13.0,-100.00,North,7,12.0,18.0,21,0.00,,,0.00,16.000000,,2013-10-08 15:44:00,
2013-10-08 08:53:00,52.0,13.0,-100.00,North,7,12.0,18.0,21,0.00,,,0.00,16.000000,,2013-10-08 15:53:00,
2013-10-08 09:23:00,59.0,14.0,-100.00,NNE,19,10.0,16.0,17,-99.99,,,0.00,267.000000,,2013-10-08 16:23:00,
2013-10-08 09:33:00,59.0,14.0,-100.00,NNE,19,10.0,16.0,17,-99.99,,,0.00,267.000000,,2013-10-08 16:33:00,
2013-10-08 09:42:00,59.0,14.0,-100.00,NNE,19,10.0,16.0,17,-99.99,,,0.00,267.000000,,2013-10-08 16:42:00,
2013-10-08 09:53:00,59.0,14.0,-100.00,NNE,19,10.0,16.0,17,-99.99,,,0.00,267.000000,,2013-10-08 16:53:00,
2013-10-08 10:22:00,66.0,14.0,-100.00,NNW,344,2.0,14.0,13,0.00,,,0.00,501.000000,,2013-10-08 17:22:00,
2013-10-08 10:33:00,66.0,14.0,-100.00,NNW,344,2.0,14.0,13,0.00,,,0.00,501.000000,,2013-10-08 17:33:00,
2013-10-08 10:42:00,66.0,14.0,-100.00,NNW,344,2.0,14.0,13,0.00,,,0.00,501.000000,,2013-10-08 17:42:00,
2013-10-08 10:52:00,66.0,14.0,-100.00,NNW,344,2.0,14.0,13,0.00,,,0.00,501.000000,,2013-10-08 17:52:00,
2013-10-08 11:22:00,70.0,22.0,-100.00,South,179,9.0,14.0,16,0.00,,,0.00,695.000000,,2013-10-08 18:22:00,
2013-10-08 11:32:00,70.0,22.0,-100.00,South,179,9.0,14.0,16,0.00,,,0.00,695.000000,,2013-10-08 18:32:00,
2013-10-08 11:42:00,70.0,22.0,-100.00,South,179,9.0,14.0,16,0.00,,,0.00,695.000000,,2013-10-08 18:42:00,
2013-10-08 11:52:00,70.0,22.0,-100.00,South,179,9.0,14.0,16,0.00,,,0.00,695.000000,,2013-10-08 18:52:00,
2013-10-08 12:21:00,74.0,25.0,-100.00,SSE,165,12.0,17.0,16,0.00,,,0.00,798.000000,,2013-10-08 19:21:00,
2013-10-08 12:32:00,74.0,25.0,-100.00,SSE,165,12.0,17.0,16,0.00,,,0.00,798.000000,,2013-10-08 19:32:00,
2013-10-08 12:42:00,74.0,25.0,-100.00,SSE,165,12.0,17.0,16,0.00,,,0.00,798.000000,,2013-10-08 19:42:00,
2013-10-08 12:52:00,74.0,25.0,-100.00,SSE,165,12.0,17.0,16,0.00,,,0.00,798.000000,,2013-10-08 19:52:00,
2013-10-08 13:22:00,75.0,21.0,-100.00,South,175,13.0,20.0,13,0.00,,,0.00,860.000000,,2013-10-08 20:22:00,
2013-10-08 13:32:00,75.0,21.0,-100.00,South,175,13.0,20.0,13,0.00,,,0.00,860.000000,,2013-10-08 20:32:00,
2013-10-08 13:42:00,75.0,21.0,-100.00,South,175,13.0,20.0,13,0.00,,,0.00,860.000000,,2013-10-08 20:42:00,
2013-10-08 13:52:00,75.0,21.0,-100.00,South,175,13.0,20.0,13,0.00,,,0.00,860.000000,,2013-10-08 20:52:00,
2013-10-08 14:22:00,77.0,20.0,-100.00,WNW,289,20.0,27.0,12,0.00,,,0.00,848.000000,,2013-10-08 21:22:00,
2013-10-08 14:34:00,77.0,20.0,-100.00,WNW,289,20.0,27.0,12,0.00,,,0.00,848.000000,,2013-10-08 21:34:00,
2013-10-08 14:44:00,77.0,20.0,-100.00,WNW,289,20.0,27.0,12,0.00,,,0.00,848.000000,,2013-10-08 21:44:00,
2013-10-08 14:54:00,77.0,20.0,-100.00,WNW,289,20.0,27.0,12,0.00,,,0.00,848.000000,,2013-10-08 21:54:00,
2013-10-08 15:24:00,76.0,18.0,-100.00,WNW,295,19.0,28.0,11,0.00,,,0.00,764.000000,,2013-10-08 22:24:00,
2013-10-08 15:32:00,76.0,18.0,-100.00,WNW,295,19.0,28.0,11,0.00,,,0.00,764.000000,,2013-10-08 22:32:00,
2013-10-08 15:45:00,76.0,18.0,-100.00,WNW,295,19.0,28.0,11,0.00,,,0.00,764.000000,,2013-10-08 22:45:00,
2013-10-08 15:54:00,76.0,18.0,-100.00,WNW,295,19.0,28.0,11,0.00,,,0.00,764.000000,,2013-10-08 22:54:00,
2013-10-08 16:22:00,75.0,19.0,-100.00,WNW,299,21.0,30.0,12,0.00,,,0.00,619.000000,,2013-10-08 23:22:00,
2013-10-08 16:34:00,75.0,19.0,-100.00,WNW,299,21.0,30.0,12,0.00,,,0.00,619.000000,,2013-10-08 23:34:00,
2013-10-08 16:42:00,75.0,19.0,-100.00,WNW,299,21.0,30.0,12,0.00,,,0.00,619.000000,,2013-10-08 23:42:00,
2013-10-08 16:52:00,75.0,19.0,-100.00,WNW,299,21.0,30.0,12,0.00,,,0.00,619.000000,,2013-10-08 23:52:00,
2013-10-08 17:22:00,73.0,17.0,-100.00,WNW,295,17.0,32.0,12,0.00,,,0.00,422.000000,,2013-10-09 00:22:00,
2013-10-08 17:32:00,73.0,17.0,-100.00,WNW,295,17.0,32.0,12,0.00,,,0.00,422.000000,,2013-10-09 00:32:00,
2013-10-08 17:42:00,73.0,17.0,-100.00,WNW,295,17.0,32.0,12,0.00,,,0.00,422.000000,,2013-10-09 00:42:00,
2013-10-08 17:52:00,73.0,17.0,-100.00,WNW,295,17.0,32.0,12,0.00,,,0.00,422.000000,,2013-10-09 00:52:00,
2013-10-08 18:22:00,71.0,19.0,-100.00,NW,311,21.0,29.0,14,0.00,,,0.00,192.000000,,2013-10-09 01:22:00,
2013-10-08 18:32:00,71.0,19.0,-100.00,NW,311,21.0,29.0,14,0.00,,,0.00,192.000000,,2013-10-09 01:32:00,
2013-10-08 18:43:00,71.0,19.0,-100.00,NW,311,21.0,29.0,14,0.00,,,0.00,192.000000,,2013-10-09 01:43:00,
2013-10-08 18:52:00,71.0,19.0,-100.00,NW,311,21.0,29.0,14,0.00,,,0.00,192.000000,,2013-10-09 01:52:00,
2013-10-08 19:22:00,67.0,22.0,-100.00,NNW,345,7.0,29.0,18,0.00,,,0.00,5.000000,,2013-10-09 02:22:00,
2013-10-08 19:32:00,67.0,22.0,-100.00,NNW,345,7.0,29.0,18,0.00,,,0.00,5.000000,,2013-10-09 02:32:00,
2013-10-08 19:42:00,67.0,22.0,-100.00,NNW,345,7.0,29.0,18,0.00,,,0.00,5.000000,,2013-10-09 02:42:00,
2013-10-08 19:52:00,67.0,22.0,-100.00,NNW,345,7.0,29.0,18,0.00,,,0.00,5.000000,,2013-10-09 02:52:00,
2013-10-08 20:23:00,65.0,22.0,-100.00,North,352,6.0,18.0,19,0.00,,,0.00,0.000000,,2013-10-09 03:23:00,
2013-10-08 20:34:00,65.0,22.0,-100.00,North,352,6.0,18.0,19,0.00,,,0.00,0.000000,,2013-10-09 03:34:00,
2013-10-08 20:44:00,65.0,22.0,-100.00,North,352,6.0,18.0,19,0.00,,,0.00,0.000000,,2013-10-09 03:44:00,
2013-10-08 20:54:00,65.0,22.0,-100.00,North,352,6.0,18.0,19,0.00,,,0.00,0.000000,,2013-10-09 03:54:00,
2013-10-08 21:24:00,64.0,22.0,-100.00,North,8,10.0,19.0,20,0.00,,,0.00,0.000000,,2013-10-09 04:24:00,
2013-10-08 21:34:00,64.0,22.0,-100.00,North,8,10.0,19.0,20,0.00,,,0.00,0.000000,,2013-10-09 04:34:00,
2013-10-08 21:44:00,64.0,22.0,-100.00,North,8,10.0,19.0,20,0.00,,,0.00,0.000000,,2013-10-09 04:44:00,
2013-10-08 21:54:00,64.0,22.0,-100.00,North,8,10.0,19.0,20,0.00,,,0.00,0.000000,,2013-10-09 04:54:00,
2013-10-08 22:22:00,62.0,22.0,-100.00,North,2,6.0,13.0,21,0.00,,,0.00,0.000000,,2013-10-09 05:22:00,
2013-10-08 22:34:00,62.0,22.0,-100.00,North,2,6.0,13.0,21,0.00,,,0.00,0.000000,,2013-10-09 05:34:00,
2013-10-08 22:42:00,62.0,22.0,-100.00,North,2,6.0,13.0,21,0.00,,,0.00,0.000000,,2013-10-09 05:42:00,
2013-10-08 22:52:00,62.0,22.0,-100.00,North,2,6.0,13.0,21,0.00,,,0.00,0.000000,,2013-10-09 05:52:00,
2013-10-08 23:22:00,62.0,23.0,-100.00,North,4,6.0,12.0,22,0.00,,,0.00,0.000000,,2013-10-09 06:22:00,
2013-10-08 23:33:00,62.0,23.0,-100.00,North,4,6.0,12.0,22,0.00,,,0.00,0.000000,,2013-10-09 06:33:00,
2013-10-08 23:42:00,62.0,23.0,-100.00,North,4,6.0,12.0,22,0.00,,,0.00,0.000000,,2013-10-09 06:42:00,
2013-10-08 23:52:00,62.0,23.0,-100.00,North,4,6.0,12.0,22,0.00,,,0.00,0.000000,,2013-10-09 06:52:00,